Погода в Мыльджине

Россия / Томская область     58°59′49″N   78°28′26″E
темп.,
°C
ветер,
м/с
пор.,
м/с
влажн.,
%
обл.,
%
осадки,
мм/ч
давл.,
гПа
погр.,
м
15 апреля, чт
чт1501:00+3зюз24100100 0.1 1024129
04:00+3юз25100100 0.0 1023157
07:00+3ююз31099100 0.0 1022353
10:00+5юз41292100 0.1 1019410
13:00+10юз5108137 0.1 1017552
16:00+14юз6107320 0.0 1014930
19:00+11юз6138018 0.0 1013789
22:00+11зюз5148386 0.0 1011636
16 апреля, пт
пт1601:00+9зюз414837 0.0 1010409
04:00+6с5891100 0.0 1011537
07:00+1с3798100 0.8 1012352
10:00+1ссз3784100 5.8 1014901
13:00+4сз5961100 6.0 10162011
16:00+1ссз7106381 0.3 10191616
19:00−2ссз610562 0.3 10231591
22:00−5с48580 0.0 1026822
17 апреля, сб
сб1701:00−6ссз256195 0.0 1027478
04:00−6зсз0162100 0.0 1026173
07:00−6ю2362100 0.0 1025365
10:00−4ююз4749100 0.0 1023680
13:000ююз6938100 0.0 10181154
16:00+2юз61040100 0.0 10151911
19:00+1з5117765 0.8 10131398
22:00−3сз511713 0.1 1015858
18 апреля, вс
вс1801:00−6сз37695 0.1 1017660
04:00−6сз2466100 0.0 1016468
07:00−6ю0169100 0.0 1017229
10:00−4юв2354100 0.0 1015623
13:00−1вюв4542100 0.0 1012965
16:000в61047100 0.6 10081465
19:00−4св81484100 2.9 10051083
22:00−5ссв81792100 4.0 10041173
19 апреля, пн
пн1901:00−7с91892100 8.0 10031244
04:00−8с91791100 3.3 10041119
07:00−10ссз81788100 4.5 1006910
10:00−9ссз81578100 0.1 1008964
13:00−6ссз8147288 0.1 10101218
16:00−4ссз71465100 0.1 10131453
19:00−5ссз61363100 0.1 10161297
22:00−8ссз5117170 0.0 1019948